Regional Weather Roundup
Issued by NWS Albany, NY

Home | Current Version | Previous Version | Text Only | Print | Product List | Glossary On
Versions: 1 2 3 4 5 6 7 8 9 10 11 12 13 14 15 16 17 18 19 20 21 22 23 24 25 26 27 28
000
ASUS41 KALY 262110
RWRALY

NEW YORK STATE HOURLY WEATHER ROUNDUP
NATIONAL WEATHER SERVICE ALBANY NY
500 PM EDT MON JUN 26 2017

NOTE: "FAIR" INDICATES FEW OR NO CLOUDS BELOW 12,000 FEET WITH NO
SIGNIFICANT WEATHER AND/OR NO OBSTRUCTIONS TO VISIBILITY.

NYZ032-033-038>043-046>054-057>066-NYZ062>081-082-084-262200-
EAST


CITY           SKY/WX    TMP DP  RH WIND       PRES   REMARKS
ALBANY         PTSUNNY   71  52  50 NE6       29.94F
GLENS FALLS    CLOUDY    60  53  77 N14       29.95R
POUGHKEEPSIE   MOSUNNY   76  48  37 SW13      29.95S
NEWBURGH       MOSUNNY   73  52  46 W9        29.98F
MONTGOMERY     MOSUNNY   77  49  37 W10       29.96F
WHITE PLAINS   MOSUNNY   76  48  37 W7        29.98F
ISLIP          MOSUNNY   76  56  49 S16G22    29.99S
NEW YORK CITY  MOSUNNY   77  51  40 S15       29.98S
CENTRAL PARK   CLOUDY    74  51  44 VRB7      30.01S
$$

NYZ005>009-017-018-044>046-055-056-262200-
CENTRAL


CITY           SKY/WX    TMP DP  RH WIND       PRES   REMARKS
FULTON         MOSUNNY   69  56  62 S6        29.95F
SYRACUSE       TSTM      68  55  62 CALM      29.94F
ROME           MOSUNNY   69  56  62 NW9       29.97F
ELMIRA         LGT RAIN  63  56  78 NW9       29.96R
BINGHAMTON     MOSUNNY   68  46  45 SW7G18    29.97F
MONTICELLO     MOSUNNY   72  46  40 W9G18     30.00F
$$

NYZ026>034-041>043-087-262200-
NORTH


CITY           SKY/WX    TMP DP  RH WIND       PRES   REMARKS
WATERTOWN      SUNNY     69  55  60 SW9       29.94F
FORT DRUM      NOT AVBL
OGDENSBURG     FAIR      72  50  45 S3        29.94S
MASSENA        CLOUDY    70  48  45 SW5       29.94F
SARANAC LAKE   LGT RAIN  58  57  97 W5        29.96F
PLATTSBURGH    PTSUNNY   68  49  50 S8        29.93F
$$

NYZ001>004-010>016-019>021-085-262200-
WEST


CITY           SKY/WX    TMP DP  RH WIND       PRES   REMARKS
NIAGARA FALLS  PTSUNNY   66  46  48 W20       29.96R
BUFFALO        MOSUNNY   68  52  56 SW22G33   29.95F
DUNKIRK        MOSUNNY   67  54  63 W15G28    29.99R
JAMESTOWN      CLOUDY    64  45  48 W14G25    30.00F
WELLSVILLE     RAIN      56  50  80 W12       30.04R
ROCHESTER      PTSUNNY   72  49  44 W12       29.93F
PENN YAN       LGT RAIN  62  51  67 SW7       29.98F
$$

             KEY
       WCI = WIND CHILL INDEX
       VSB = VISIBILITY
       HX  = HEAT INDEX
$$




USA.gov is the U.S. government's official web portal to all federal, state and local government web resources and services.